DW9426 Weather Reports


Display with metric or nautical units.
time (UTC)temp
F
wind
direction
speed
MPH
gust
MPH
rain 1hr
in
rain 24hr
in
rain mn
in
humidity
%
barometer
mb
20220520071004 76 202 4.0 9.0 0.00 0.05 0.00 78 1002.5
20220520070504 76 202 3.0 9.0 0.00 0.05 0.00 77 1002.5
20220520070004 76 201 3.0 9.0 0.00 0.05 0.00 77 1002.7
20220520065504 77 199 4.0 11.0 0.00 0.05 0.00 76 1002.7
20220520065005 77 200 3.0 11.0 0.00 0.05 0.00 76 1002.7
20220520064505 77 198 3.0 9.0 0.00 0.05 0.00 75 1002.8
20220520064003 77 199 3.0 9.0 0.00 0.05 0.00 75 1002.7
20220520063504 77 199 4.0 10.0 0.00 0.05 0.00 74 1002.7
20220520063004 78 201 4.0 10.0 0.00 0.05 0.00 74 1002.7
20220520062504 78 205 3.0 9.0 0.00 0.05 0.00 74 1002.7
20220520062003 78 204 4.0 10.0 0.00 0.05 0.00 73 1002.8
20220520061504 78 201 5.0 11.0 0.00 0.05 0.00 73 1002.9
20220520061004 78 198 4.0 14.0 0.00 0.05 0.00 73 1002.8
20220520060504 78 197 5.0 14.0 0.00 0.05 0.00 72 1002.8
20220520060004 79 198 4.0 12.0 0.00 0.05 0.00 72 1002.8
20220520055504 79 197 4.0 13.0 0.00 0.05 0.00 71 1002.8
20220520055004 79 194 4.0 13.0 0.00 0.05 0.00 71 1002.8
20220520054504 79 197 5.0 12.0 0.00 0.05 0.00 71 1002.9
20220520054004 79 200 5.0 12.0 0.00 0.05 0.00 70 1002.8
20220520053504 79 200 4.0 15.0 0.00 0.05 0.00 70 1002.8
20220520053003 80 195 5.0 15.0 0.00 0.05 0.00 70 1002.8
20220520052504 80 196 5.0 13.0 0.00 0.05 0.00 70 1003.0
20220520052004 80 199 4.0 12.0 0.00 0.05 0.00 70 1003.0
20220520051504 80 193 4.0 10.0 0.00 0.05 0.00 70 1002.9
20220520051004 80 193 4.0 10.0 0.00 0.05 0.00 70 1002.9
20220520050504 80 198 4.0 11.0 0.00 0.05 0.00 69 1002.9
20220520050004 80 195 4.0 14.0 0.00 0.05 0.00 69 1002.9
20220520045504 80 190 4.0 14.0 0.00 0.05 0.05 69 1003.0
20220520045004 80 198 3.0 8.0 0.00 0.05 0.05 69 1003.1
20220520044505 80 203 3.0 12.0 0.00 0.05 0.05 69 1003.0
20220520044004 80 202 3.0 12.0 0.00 0.05 0.05 69 1003.1
20220520043504 80 198 3.0 10.0 0.00 0.05 0.05 69 1003.0
20220520043004 80 197 4.0 10.0 0.00 0.05 0.05 69 1003.0
20220520042504 80 195 3.0 10.0 0.00 0.05 0.05 69 1003.0
20220520042004 80 188 3.0 12.0 0.00 0.05 0.05 70 1003.1
20220520041504 80 188 3.0 12.0 0.00 0.05 0.05 70 1003.1
20220520041004 80 192 3.0 12.0 0.00 0.05 0.05 70 1003.0
20220520040504 80 195 2.0 9.0 0.00 0.05 0.05 70 1003.1
20220520040004 80 189 3.0 10.0 0.00 0.05 0.05 70 1003.0
20220520035504 80 190 2.0 10.0 0.00 0.05 0.05 70 1003.1
20220520035004 80 194 2.0 7.0 0.00 0.05 0.05 70 1003.1
20220520034503 80 200 2.0 8.0 0.00 0.05 0.05 70 1003.1
20220520034004 80 193 2.0 11.0 0.00 0.05 0.05 70 1003.0
20220520033504 80 188 3.0 11.0 0.00 0.05 0.05 71 1002.9
20220520033004 80 188 3.0 15.0 0.00 0.05 0.05 71 1002.9
20220520032504 80 175 3.0 15.0 0.00 0.05 0.05 71 1003.0
20220520032004 80 173 3.0 10.0 0.00 0.05 0.05 71 1002.8
20220520031503 80 179 2.0 10.0 0.00 0.05 0.05 71 1002.7
20220520031004 80 184 2.0 7.0 0.00 0.05 0.05 71 1002.8
20220520030504 80 185 2.0 7.0 0.00 0.05 0.05 71 1002.7
20220520030005 80 183 2.0 8.0 0.00 0.05 0.05 70 1002.7
20220520025503 81 179 2.0 9.0 0.00 0.05 0.05 70 1002.7
20220520025004 81 179 2.0 9.0 0.00 0.05 0.05 70 1002.6
20220520024504 81 182 2.0 10.0 0.00 0.05 0.05 70 1002.6
20220520024004 81 179 2.0 10.0 0.00 0.05 0.05 69 1002.6
20220520023505 81 179 2.0 7.0 0.00 0.05 0.05 69 1002.5
20220520023004 81 187 1.0 7.0 0.00 0.05 0.05 68 1002.6
20220520022504 82 187 2.0 7.0 0.00 0.05 0.05 68 1002.6
20220520022004 82 188 1.0 5.0 0.00 0.05 0.05 67 1002.6
20220520021504 82 188 2.0 6.0 0.00 0.05 0.05 67 1002.5
20220520021004 82 182 2.0 9.0 0.00 0.05 0.05 67 1002.5
20220520020504 82 183 2.0 9.0 0.00 0.05 0.05 67 1002.5
20220520020004 82 198 1.0 6.0 0.00 0.05 0.05 66 1002.4
20220520015504 82 199 2.0 7.0 0.00 0.05 0.05 66 1002.4
20220520015004 83 190 2.0 7.0 0.00 0.05 0.05 66 1002.4
20220520014504 83 183 2.0 8.0 0.00 0.05 0.05 66 1002.4
20220520014004 83 183 2.0 8.0 0.00 0.05 0.05 66 1002.5
20220520013504 83 187 2.0 9.0 0.00 0.05 0.05 66 1002.4
20220520013004 83 191 2.0 14.0 0.00 0.05 0.05 65 1002.5
20220520012504 83 195 3.0 14.0 0.00 0.05 0.05 65 1002.5
20220520012004 84 195 3.0 10.0 0.00 0.05 0.05 65 1002.5
20220520011504 84 189 2.0 9.0 0.00 0.05 0.05 65 1002.4
20220520011004 84 189 2.0 8.0 0.00 0.05 0.05 66 1002.5
20220520010505 84 197 2.0 8.0 0.00 0.05 0.05 65 1002.4
20220520010005 84 197 3.0 10.0 0.00 0.05 0.05 65 1002.4
20220520005503 84 198 3.0 10.0 0.00 0.05 0.05 65 1002.4
20220520005004 85 198 2.0 8.0 0.00 0.05 0.05 65 1002.3
20220520004504 85 194 2.0 9.0 0.00 0.05 0.05 64 1002.3
20220520004004 85 196 3.0 12.0 0.00 0.05 0.05 64 1002.4
20220520003504 86 198 3.0 12.0 0.00 0.05 0.05 63 1002.3
20220520003004 86 196 3.0 10.0 0.00 0.05 0.05 63 1002.3
20220520002504 86 197 2.0 8.0 0.00 0.05 0.05 62 1002.3
20220520002004 86 195 3.0 13.0 0.00 0.05 0.05 62 1002.3
20220520001504 86 197 4.0 13.0 0.00 0.05 0.05 61 1002.3
20220520001004 86 200 4.0 17.0 0.00 0.05 0.05 60 1002.3
20220520000504 87 203 4.0 17.0 0.00 0.05 0.05 61 1002.3
20220520000004 87 201 5.0 11.0 0.00 0.05 0.05 60 1002.4
20220519235503 87 200 5.0 11.0 0.00 0.05 0.05 59 1002.5
20220519235004 87 202 5.0 13.0 0.00 0.05 0.05 59 1002.5
20220519234504 88 192 6.0 13.0 0.00 0.05 0.05 59 1002.5
20220519234004 88 192 5.0 13.0 0.00 0.05 0.05 59 1002.5
20220519233504 88 200 5.0 12.0 0.00 0.05 0.05 59 1002.6
20220519233004 88 194 5.0 13.0 0.00 0.05 0.05 59 1002.6
20220519232504 88 195 5.0 15.0 0.00 0.05 0.05 59 1002.7
20220519232004 88 199 5.0 15.0 0.00 0.05 0.05 59 1002.7
20220519231504 88 196 4.0 11.0 0.00 0.05 0.05 59 1002.8
20220519231004 88 196 4.0 10.0 0.00 0.05 0.05 59 1002.8
20220519230504 89 200 5.0 13.0 0.00 0.05 0.05 59 1002.8
20220519230004 89 196 5.0 13.0 0.00 0.05 0.05 59 1002.9
20220519225504 89 193 5.0 14.0 0.00 0.05 0.05 58 1002.9
20220519225003 89 199 5.0 14.0 0.00 0.05 0.05 57 1003.0
20220519224504 89 197 5.0 11.0 0.00 0.05 0.05 59 1003.0
20220519224004 89 195 5.0 14.0 0.00 0.05 0.05 58 1002.9
20220519223504 89 203 5.0 14.0 0.00 0.05 0.05 57 1003.0
20220519223004 89 199 5.0 11.0 0.00 0.05 0.05 57 1003.1
20220519222504 89 195 5.0 11.0 0.00 0.05 0.05 57 1003.1
20220519222004 90 194 4.0 11.0 0.00 0.05 0.05 57 1003.2
20220519221503 90 187 5.0 13.0 0.00 0.05 0.05 57 1003.2
20220519221004 90 185 5.0 13.0 0.00 0.05 0.05 56 1003.3
20220519220504 90 190 5.0 13.0 0.00 0.05 0.05 57 1003.3
20220519220004 90 189 5.0 16.0 0.00 0.05 0.05 57 1003.3
20220519215504 90 194 5.0 16.0 0.00 0.05 0.05 56 1003.4
20220519215003 89 203 5.0 12.0 0.00 0.05 0.05 56 1003.5
20220519214503 90 194 6.0 14.0 0.00 0.05 0.05 56 1003.6
20220519214004 90 188 6.0 14.0 0.00 0.05 0.05 56 1003.7
20220519213504 90 194 5.0 14.0 0.00 0.05 0.05 56 1003.7
20220519213004 89 200 6.0 16.0 0.00 0.05 0.05 56 1003.7
20220519212503 90 199 5.0 16.0 0.00 0.05 0.05 57 1003.9
20220519212004 90 191 5.0 14.0 0.00 0.05 0.05 55 1003.9
20220519211504 90 191 5.0 13.0 0.00 0.05 0.05 57 1003.9
20220519211004 90 204 5.0 14.0 0.00 0.05 0.05 56 1004.0
20220519210504 90 202 5.0 14.0 0.00 0.05 0.05 55 1004.1
20220519210004 90 198 4.0 11.0 0.00 0.05 0.05 54 1004.1
20220519205503 90 206 5.0 11.0 0.00 0.05 0.05 56 1004.3
20220519205004 90 201 5.0 14.0 0.00 0.05 0.05 54 1004.4
20220519204503 90 193 5.0 14.0 0.00 0.05 0.05 54 1004.4
20220519204004 89 196 5.0 12.0 0.00 0.05 0.05 54 1004.7
20220519203504 89 199 5.0 12.0 0.00 0.05 0.05 54 1004.7
20220519203004 89 200 4.0 13.0 0.00 0.05 0.05 53 1004.8
20220519202503 89 200 4.0 14.0 0.00 0.05 0.05 55 1004.9
20220519202004 89 200 5.0 14.0 0.00 0.05 0.05 56 1005.0
20220519201504 89 201 4.0 9.0 0.00 0.05 0.05 56 1005.1
20220519201004 89 204 5.0 13.0 0.00 0.05 0.05 55 1005.2
20220519200504 88 208 6.0 19.0 0.00 0.05 0.05 55 1005.3
20220519200005 88 199 5.0 19.0 0.00 0.05 0.05 55 1005.3
20220519195503 88 189 5.0 17.0 0.00 0.05 0.05 56 1005.4
20220519195003 88 197 5.0 12.0 0.00 0.05 0.05 55 1005.5
20220519194504 88 208 5.0 11.0 0.00 0.05 0.05 57 1005.6
20220519194004 88 210 5.0 12.0 0.00 0.05 0.05 57 1005.6
20220519193504 88 203 4.0 12.0 0.00 0.05 0.05 56 1005.6
20220519193004 88 199 5.0 12.0 0.00 0.05 0.05 56 1005.7
20220519192503 88 199 5.0 11.0 0.00 0.05 0.05 57 1005.8
20220519192004 88 200 4.0 16.0 0.00 0.05 0.05 57 1005.9
20220519191504 88 202 4.0 16.0 0.00 0.05 0.05 59 1005.9
20220519191004 88 204 4.0 13.0 0.00 0.05 0.05 60 1005.9
20220519190504 87 202 4.0 13.0 0.00 0.05 0.05 58 1006.0
20220519190004 87 201 5.0 12.0 0.00 0.05 0.05 59 1006.0
20220519185503 87 201 4.0 12.0 0.00 0.05 0.05 58 1006.1
20220519185004 87 204 4.0 16.0 0.00 0.05 0.05 58 1006.2
20220519184504 86 211 4.0 16.0 0.00 0.05 0.05 59 1006.4
20220519184004 86 212 4.0 16.0 0.00 0.05 0.05 59 1006.4
20220519183504 86 216 5.0 11.0 0.00 0.05 0.05 61 1006.5
20220519183004 86 211 6.0 15.0 0.00 0.05 0.05 60 1006.6
20220519182503 86 200 5.0 15.0 0.00 0.05 0.05 60 1006.8
20220519182004 86 201 4.0 17.0 0.00 0.05 0.05 60 1006.8
20220519181504 86 208 4.0 17.0 0.00 0.05 0.05 61 1006.8
20220519181004 85 204 5.0 14.0 0.00 0.05 0.05 62 1006.9
20220519180504 86 201 4.0 10.0 0.00 0.05 0.05 60 1007.0
20220519180004 85 203 4.0 10.0 0.00 0.05 0.05 61 1007.1
20220519175504 85 198 4.0 10.0 0.00 0.05 0.05 61 1007.2
20220519175004 85 201 4.0 12.0 0.00 0.05 0.05 61 1007.3
20220519174503 85 207 5.0 14.0 0.00 0.05 0.05 62 1007.5
20220519174004 84 208 5.0 20.0 0.00 0.05 0.05 61 1007.6
20220519173504 84 202 5.0 20.0 0.00 0.05 0.05 60 1007.6
20220519173004 84 199 5.0 13.0 0.00 0.05 0.05 62 1007.8
20220519172504 84 205 4.0 13.0 0.00 0.05 0.05 63 1007.9
20220519172003 84 203 4.0 10.0 0.00 0.05 0.05 62 1008.0
20220519171504 84 196 4.0 10.0 0.00 0.05 0.05 62 1008.2
20220519171004 84 202 3.0 13.0 0.00 0.05 0.05 62 1008.2
20220519170504 84 202 4.0 13.0 0.00 0.05 0.05 62 1008.2
20220519170004 84 203 4.0 13.0 0.00 0.05 0.05 62 1008.4
20220519165503 83 205 4.0 16.0 0.00 0.05 0.05 63 1008.4
20220519165003 83 208 4.0 16.0 0.00 0.05 0.05 62 1008.6
20220519164504 83 204 3.0 14.0 0.00 0.05 0.05 62 1008.7
20220519164004 83 194 3.0 10.0 0.00 0.05 0.05 66 1008.8
20220519163504 83 210 3.0 13.0 0.00 0.05 0.05 66 1008.9
20220519163004 82 214 4.0 13.0 0.00 0.05 0.05 65 1008.9
20220519162503 82 213 3.0 11.0 0.00 0.05 0.05 66 1009.1
20220519162004 82 211 3.0 11.0 0.00 0.05 0.05 67 1009.2
20220519161504 82 212 3.0 9.0 0.00 0.05 0.05 67 1009.3
20220519161004 82 208 3.0 10.0 0.00 0.05 0.05 69 1009.2
20220519160503 81 205 3.0 10.0 0.00 0.05 0.05 70 1009.3
20220519160004 81 214 3.0 11.0 0.00 0.05 0.05 70 1009.3
20220519155504 81 220 3.0 11.0 0.00 0.05 0.05 70 1009.5
20220519155004 80 218 4.0 13.0 0.00 0.05 0.05 71 1009.7
20220519154504 80 215 4.0 13.0 0.00 0.05 0.05 70 1009.7
20220519154004 80 209 3.0 9.0 0.00 0.05 0.05 71 1009.8
20220519153504 80 217 3.0 9.0 0.00 0.05 0.05 71 1009.9
20220519153004 80 224 3.0 9.0 0.00 0.05 0.05 72 1010.0
20220519152504 80 208 2.0 9.0 0.00 0.05 0.05 75 1010.0
20220519152003 79 211 2.0 10.0 0.00 0.05 0.05 74 1009.9
20220519151504 79 215 3.0 11.0 0.00 0.05 0.05 75 1009.8
20220519151004 79 215 2.0 12.0 0.00 0.05 0.05 75 1010.0
20220519150504 78 208 2.0 12.0 0.00 0.05 0.05 77 1010.0
20220519150004 78 203 3.0 10.0 0.00 0.05 0.05 77 1009.9
20220519145504 78 210 2.0 7.0 0.00 0.05 0.05 77 1010.0
20220519145004 78 212 2.0 13.0 0.00 0.05 0.05 78 1010.1
20220519144503 78 210 2.0 13.0 0.00 0.05 0.05 80 1010.1
20220519144003 77 205 3.0 8.0 0.00 0.05 0.05 80 1009.9
20220519143504 77 201 2.0 12.0 0.00 0.05 0.05 81 1010.0
20220519143003 77 209 2.0 12.0 0.00 0.05 0.05 81 1010.0
20220519142504 76 217 2.0 9.0 0.00 0.05 0.05 83 1009.9
20220519142004 76 206 2.0 9.0 0.00 0.05 0.05 85 1009.9
20220519141504 75 202 2.0 9.0 0.00 0.05 0.05 85 1009.9
20220519141003 75 209 2.0 8.0 0.00 0.05 0.05 86 1009.9
20220519140504 74 216 3.0 14.0 0.00 0.05 0.05 87 1010.1
20220519140004 74 217 3.0 14.0 0.00 0.05 0.05 87 1010.1
20220519135504 74 208 3.0 8.0 0.00 0.05 0.05 87 1009.9
20220519135004 74 199 3.0 8.0 0.00 0.05 0.05 89 1009.8
20220519134504 73 200 3.0 8.0 0.00 0.05 0.05 89 1009.9
20220519134004 73 206 3.0 13.0 0.00 0.05 0.05 89 1010.0
20220519133503 73 210 2.0 13.0 0.00 0.05 0.05 90 1010.0
20220519133004 73 211 1.0 5.0 0.00 0.05 0.05 91 1009.7
20220519132504 72 224 1.0 11.0 0.00 0.05 0.05 91 1010.0
20220519132004 72 217 2.0 15.0 0.00 0.05 0.05 92 1010.4
20220519131503 72 206 2.0 15.0 0.00 0.05 0.05 92 1009.9
20220519131003 72 193 2.0 13.0 0.00 0.05 0.05 93 1010.2
20220519130504 72 200 2.0 13.0 0.00 0.05 0.05 93 1009.9
20220519130004 72 218 1.0 7.0 0.00 0.05 0.05 94 1010.4
20220519125504 71 213 1.0 7.0 0.00 0.05 0.05 94 1010.4
20220519125003 71 216 1.0 6.0 0.00 0.05 0.05 95 1009.9
20220519124504 71 222 0.0 5.0 0.00 0.05 0.05 95 1010.1
20220519124004 71 220 1.0 7.0 0.00 0.05 0.05 95 1010.3
20220519123504 71 205 1.0 7.0 0.00 0.05 0.05 96 1010.1
20220519123004 70 206 0.0 6.0 0.00 0.05 0.05 96 1009.9
20220519122504 70 223 0.0 5.0 0.00 0.05 0.05 97 1010.5
20220519122004 70 224 1.0 4.0 0.00 0.05 0.05 97 1010.0
20220519121503 70 206 1.0 8.0 0.00 0.05 0.05 97 1009.8
20220519121003 70 191 1.0 8.0 0.00 0.05 0.05 100 1009.3
20220519120504 70 188 0.0 8.0 0.00 0.05 0.05 100 1009.4
20220519120004 70 178 0.0 7.0 0.00 0.05 0.05 100 1009.4
20220519115504 69 184 0.0 7.0 0.00 0.05 0.05 100 1009.5
20220519115004 69 212 0.0 4.0 0.00 0.05 0.05 100 1009.6
20220519114503 69 219 0.0 5.0 0.00 0.05 0.05 100 1009.5
20220519114003 69 207 1.0 5.0 0.00 0.05 0.05 100 1009.5
20220519113504 69 210 1.0 9.0 0.00 0.05 0.05 100 1009.5
20220519113004 69 210 1.0 9.0 0.00 0.05 0.05 100 1009.4
20220519112504 69 184 1.0 6.0 0.00 0.05 0.05 100 1009.2
20220519112003 69 188 1.0 7.0 0.00 0.05 0.05 100 1009.0
20220519111504 69 194 1.0 8.0 0.00 0.05 0.05 97 1008.7
20220519111004 69 197 1.0 8.0 0.00 0.05 0.05 97 1008.6
20220519110504 69 193 2.0 7.0 0.00 0.05 0.05 97 1008.6
20220519110005 69 193 2.0 8.0 0.00 0.05 0.05 97 1008.7
20220519105503 69 200 2.0 9.0 0.01 0.05 0.05 97 1008.7
20220519105004 69 193 2.0 13.0 0.04 0.05 0.05 97 1008.7
20220519104504 69 190 3.0 13.0 0.04 0.05 0.05 97 1008.5
20220519104004 69 192 3.0 13.0 0.04 0.05 0.05 97 1008.5
20220519103504 69 193 3.0 13.0 0.04 0.05 0.05 97 1008.4
20220519103004 69 199 3.0 12.0 0.04 0.05 0.05 97 1008.5
20220519102503 69 203 3.0 12.0 0.04 0.05 0.05 97 1008.6
20220519102003 69 205 3.0 9.0 0.04 0.05 0.05 97 1008.4
20220519101504 69 212 3.0 11.0 0.04 0.05 0.05 96 1008.6
20220519101004 70 214 3.0 11.0 0.05 0.05 0.05 96 1008.6
20220519100504 70 209 3.0 8.0 0.05 0.05 0.05 95 1008.6
20220519100004 70 209 3.0 8.0 0.05 0.05 0.05 95 1008.6
20220519095503 71 211 2.0 6.0 0.04 0.04 0.04 93 1008.5
20220519095003 72 213 2.0 9.0 0.01 0.01 0.01 90 1008.7
20220519094504 72 214 2.0 9.0 0.01 0.01 0.01 89 1008.8
20220519094004 72 209 2.0 12.0 0.01 0.01 0.01 90 1008.7
20220519093503 72 213 3.0 12.0 0.01 0.01 0.01 91 1008.3
20220519093004 71 209 3.0 13.0 0.01 0.01 0.01 92 1008.4
20220519092504 71 206 3.0 13.0 0.01 0.01 0.01 92 1008.4
20220519092004 71 207 3.0 11.0 0.01 0.01 0.01 91 1008.5
20220519091504 73 201 3.0 10.0 0.01 0.01 0.01 88 1008.4
20220519091003 74 200 2.0 9.0 0.00 0.00 0.00 82 1008.5
20220519090503 74 207 2.0 7.0 0.00 0.00 0.00 81 1008.6
20220519090004 74 209 2.0 7.0 0.00 0.00 0.00 81 1008.6
20220519085504 74 206 1.0 8.0 0.00 0.00 0.00 81 1008.8
20220519085004 75 200 1.0 9.0 0.00 0.00 0.00 80 1008.8
20220519084503 75 202 1.0 9.0 0.00 0.00 0.00 80 1008.8
20220519084003 75 207 1.0 6.0 0.00 0.00 0.00 80 1008.8
20220519083503 75 210 1.0 6.0 0.00 0.00 0.00 79 1008.8
20220519083004 75 214 2.0 6.0 0.00 0.00 0.00 79 1008.5
20220519082504 75 207 2.0 6.0 0.00 0.00 0.00 79 1008.4
20220519082003 75 205 1.0 9.0 0.00 0.00 0.00 78 1008.3
20220519081503 75 202 2.0 9.0 0.00 0.00 0.00 78 1008.2
20220519081003 75 196 2.0 10.0 0.00 0.00 0.00 78 1008.2
20220519080504 76 198 1.0 10.0 0.00 0.00 0.00 77 1008.1
20220519080004 76 194 2.0 12.0 0.00 0.00 0.00 77 1007.9
20220519075503 76 194 2.0 12.0 0.00 0.00 0.00 76 1007.9
20220519075003 76 198 2.0 9.0 0.00 0.00 0.00 76 1007.9
20220519074504 76 202 2.0 10.0 0.00 0.00 0.00 75 1008.0
20220519074004 76 204 2.0 10.0 0.00 0.00 0.00 75 1008.0
20220519073503 76 197 3.0 11.0 0.00 0.00 0.00 75 1008.0
20220519073004 76 191 3.0 11.0 0.00 0.00 0.00 74 1008.0
20220519072504 76 189 2.0 10.0 0.00 0.00 0.00 74 1008.0
20220519072004 77 191 2.0 7.0 0.00 0.00 0.00 74 1008.1
20220519071503 77 193 1.0 8.0 0.00 0.00 0.00 73 1008.2